| time (UTC) | temp F | wind direction | speed knots | gust knots | rain 1hr in | rain 24hr in | rain mn in | humidity % | barometer mb |
| 20260509004034 | 41 | 0 | 0.0 | 0.0 | 0.00 | 0.00 | 0.00 | 81 | 1024.6 |
| 20260509003534 | 41 | 0 | 0.0 | 0.0 | 0.00 | 0.00 | 0.00 | 80 | 1024.8 |
| 20260509003041 | 41 | 0 | 0.0 | 0.0 | 0.00 | 0.00 | 0.00 | 80 | 1024.7 |
| 20260509002536 | 41 | 0 | 0.0 | 0.0 | 0.00 | 0.00 | 0.00 | 80 | 1024.7 |
| 20260509002034 | 41 | 0 | 0.0 | 0.0 | 0.00 | 0.00 | 0.00 | 79 | 1024.7 |
| 20260509001551 | 41 | 0 | 0.0 | 0.0 | 0.00 | 0.00 | 0.00 | 79 | 1024.8 |
| 20260509001033 | 41 | 0 | 0.0 | 0.0 | 0.00 | 0.00 | 0.00 | 79 | 1024.7 |
| 20260509000535 | 41 | 0 | 0.0 | 0.0 | 0.00 | 0.00 | 0.00 | 79 | 1024.7 |
| 20260509000047 | 41 | 0 | 0.0 | 0.0 | 0.00 | 0.00 | 0.00 | 79 | 1024.7 |
| 20260508235534 | 41 | 0 | 0.0 | 0.0 | 0.00 | 0.00 | 0.00 | 79 | 1024.7 |
| 20260508235037 | 41 | 0 | 0.0 | 0.0 | 0.00 | 0.00 | 0.00 | 79 | 1024.7 |
| 20260508234544 | 41 | 0 | 0.0 | 0.0 | 0.00 | 0.00 | 0.00 | 79 | 1024.7 |
| 20260508234033 | 41 | 0 | 0.0 | 0.0 | 0.00 | 0.00 | 0.00 | 78 | 1024.7 |
| 20260508233533 | 41 | 0 | 0.0 | 0.0 | 0.00 | 0.00 | 0.00 | 79 | 1024.7 |
| 20260508233044 | 41 | 0 | 0.0 | 0.0 | 0.00 | 0.00 | 0.00 | 78 | 1024.7 |
| 20260508232534 | 41 | 0 | 0.0 | 0.9 | 0.00 | 0.00 | 0.00 | 79 | 1024.7 |
| 20260508232034 | 41 | 0 | 0.0 | 0.9 | 0.00 | 0.00 | 0.00 | 79 | 1024.8 |
| 20260508231545 | 40 | 0 | 0.0 | 0.0 | 0.00 | 0.00 | 0.00 | 79 | 1024.6 |
| 20260508231034 | 40 | 0 | 0.0 | 0.0 | 0.00 | 0.00 | 0.00 | 78 | 1024.7 |
| 20260508230533 | 41 | 0 | 0.0 | 0.0 | 0.00 | 0.00 | 0.00 | 77 | 1024.7 |
| 20260508230045 | 41 | 0 | 0.0 | 0.0 | 0.00 | 0.00 | 0.00 | 76 | 1024.6 |
| 20260508225534 | 41 | 0 | 0.0 | 0.0 | 0.00 | 0.00 | 0.00 | 76 | 1024.7 |
| 20260508225034 | 42 | 0 | 0.0 | 0.0 | 0.00 | 0.00 | 0.00 | 75 | 1024.7 |
| 20260508224550 | 42 | 0 | 0.0 | 0.0 | 0.00 | 0.00 | 0.00 | 76 | 1024.6 |
| 20260508224034 | 41 | 0 | 0.0 | 0.0 | 0.00 | 0.00 | 0.00 | 76 | 1024.6 |
| 20260508223534 | 41 | 0 | 0.0 | 0.0 | 0.00 | 0.00 | 0.00 | 76 | 1024.6 |
| 20260508223050 | 41 | 0 | 0.0 | 0.0 | 0.00 | 0.00 | 0.00 | 75 | 1024.6 |
| 20260508222534 | 42 | 0 | 0.0 | 0.0 | 0.00 | 0.00 | 0.00 | 75 | 1024.7 |
| 20260508222033 | 42 | 0 | 0.0 | 0.9 | 0.00 | 0.00 | 0.00 | 74 | 1024.5 |
| 20260508221544 | 42 | 0 | 0.0 | 1.7 | 0.00 | 0.00 | 0.00 | 75 | 1024.6 |
| 20260508221034 | 42 | 118 | 0.9 | 1.7 | 0.00 | 0.00 | 0.00 | 75 | 1024.6 |
| 20260508220534 | 42 | 101 | 0.9 | 1.7 | 0.00 | 0.00 | 0.00 | 75 | 1024.6 |
| 20260508220040 | 43 | 152 | 0.0 | 1.7 | 0.00 | 0.00 | 0.00 | 71 | 1024.6 |
| 20260508215534 | 45 | 106 | 0.0 | 0.9 | 0.00 | 0.00 | 0.00 | 66 | 1024.6 |
| 20260508215034 | 46 | 86 | 0.9 | 2.6 | 0.00 | 0.00 | 0.00 | 63 | 1024.6 |
| 20260508214555 | 46 | 0 | 0.0 | 2.6 | 0.00 | 0.00 | 0.00 | 63 | 1024.5 |
| 20260508214036 | 46 | 0 | 0.0 | 1.7 | 0.00 | 0.00 | 0.00 | 63 | 1024.5 |
| 20260508213533 | 46 | 0 | 0.0 | 1.7 | 0.00 | 0.00 | 0.00 | 62 | 1024.5 |
| 20260508213045 | 46 | 91 | 0.0 | 1.7 | 0.00 | 0.00 | 0.00 | 63 | 1024.5 |
| 20260508212534 | 46 | 89 | 0.0 | 0.9 | 0.00 | 0.00 | 0.00 | 62 | 1024.6 |
| 20260508212035 | 47 | 0 | 0.0 | 0.9 | 0.00 | 0.00 | 0.00 | 61 | 1024.5 |
| 20260508211541 | 47 | 322 | 0.0 | 0.9 | 0.00 | 0.00 | 0.00 | 62 | 1024.4 |
| 20260508211034 | 47 | 0 | 0.0 | 0.0 | 0.00 | 0.00 | 0.00 | 61 | 1024.5 |
| 20260508210534 | 47 | 0 | 0.0 | 1.7 | 0.00 | 0.00 | 0.00 | 61 | 1024.6 |
| 20260508210054 | 47 | 0 | 0.0 | 1.7 | 0.00 | 0.00 | 0.00 | 60 | 1024.5 |
| 20260508205533 | 47 | 0 | 0.0 | 0.9 | 0.00 | 0.00 | 0.00 | 60 | 1024.5 |
| 20260508205034 | 47 | 122 | 0.0 | 0.9 | 0.00 | 0.00 | 0.00 | 61 | 1024.4 |
| 20260508204544 | 47 | 0 | 0.0 | 0.9 | 0.00 | 0.00 | 0.00 | 61 | 1024.5 |
| 20260508204033 | 47 | 0 | 0.0 | 0.0 | 0.00 | 0.00 | 0.00 | 60 | 1024.5 |
| 20260508203533 | 48 | 0 | 0.0 | 0.0 | 0.00 | 0.00 | 0.00 | 60 | 1024.5 |
| 20260508203045 | 48 | 0 | 0.0 | 0.0 | 0.00 | 0.00 | 0.00 | 60 | 1024.4 |
| 20260508202535 | 47 | 0 | 0.0 | 0.0 | 0.00 | 0.00 | 0.00 | 60 | 1024.5 |
| 20260508202034 | 48 | 0 | 0.0 | 0.0 | 0.00 | 0.00 | 0.00 | 60 | 1024.4 |
| 20260508201541 | 48 | 0 | 0.0 | 0.9 | 0.00 | 0.00 | 0.00 | 61 | 1024.3 |
| 20260508201033 | 48 | 0 | 0.0 | 0.9 | 0.00 | 0.00 | 0.00 | 59 | 1024.4 |
| 20260508200534 | 49 | 0 | 0.0 | 0.9 | 0.00 | 0.00 | 0.00 | 59 | 1024.3 |
| 20260508200043 | 49 | 0 | 0.0 | 0.9 | 0.00 | 0.00 | 0.00 | 59 | 1024.4 |
| 20260508195533 | 49 | 0 | 0.0 | 0.9 | 0.00 | 0.00 | 0.00 | 59 | 1024.2 |
| 20260508195033 | 50 | 0 | 0.0 | 0.9 | 0.00 | 0.00 | 0.00 | 57 | 1024.2 |
| 20260508194546 | 50 | 108 | 0.0 | 0.9 | 0.00 | 0.00 | 0.00 | 57 | 1024.3 |
| 20260508194035 | 51 | 0 | 0.0 | 3.5 | 0.00 | 0.00 | 0.00 | 56 | 1024.1 |
| 20260508193533 | 51 | 126 | 0.9 | 3.5 | 0.00 | 0.00 | 0.00 | 55 | 1024.1 |
| 20260508193058 | 51 | 115 | 1.7 | 3.5 | 0.00 | 0.00 | 0.00 | 56 | 1024.1 |
| 20260508192533 | 52 | 114 | 0.9 | 2.6 | 0.00 | 0.00 | 0.00 | 54 | 1024.2 |
| 20260508192038 | 52 | 135 | 0.9 | 1.7 | 0.00 | 0.00 | 0.00 | 54 | 1024.1 |
| 20260508191550 | 52 | 156 | 0.0 | 1.7 | 0.00 | 0.00 | 0.00 | 52 | 1024.1 |
| 20260508191034 | 52 | 205 | 0.0 | 3.5 | 0.00 | 0.00 | 0.00 | 52 | 1024.1 |
| 20260508190533 | 52 | 218 | 1.7 | 4.3 | 0.00 | 0.00 | 0.00 | 52 | 1024.0 |
| 20260508190055 | 52 | 240 | 1.7 | 6.1 | 0.00 | 0.00 | 0.00 | 52 | 1023.8 |
| 20260508185539 | 53 | 230 | 3.5 | 6.1 | 0.00 | 0.00 | 0.00 | 51 | 1023.7 |
| 20260508185034 | 53 | 238 | 3.5 | 8.7 | 0.00 | 0.00 | 0.00 | 49 | 1023.9 |
| 20260508184539 | 54 | 224 | 5.2 | 8.7 | 0.00 | 0.00 | 0.00 | 48 | 1023.9 |
| 20260508184034 | 54 | 230 | 3.5 | 7.0 | 0.00 | 0.00 | 0.00 | 48 | 1023.8 |
| 20260508183533 | 54 | 214 | 3.5 | 6.1 | 0.00 | 0.00 | 0.00 | 49 | 1023.8 |
| 20260508183047 | 54 | 231 | 3.5 | 7.0 | 0.00 | 0.00 | 0.00 | 48 | 1023.8 |
| 20260508182534 | 55 | 232 | 4.3 | 10.4 | 0.00 | 0.00 | 0.00 | 47 | 1023.8 |
| 20260508182034 | 55 | 221 | 5.2 | 10.4 | 0.00 | 0.00 | 0.00 | 47 | 1023.9 |
| 20260508181544 | 55 | 253 | 5.2 | 10.4 | 0.00 | 0.00 | 0.00 | 46 | 1023.8 |
| 20260508181037 | 56 | 153 | 3.5 | 6.1 | 0.00 | 0.00 | 0.00 | 47 | 1023.8 |
| 20260508180533 | 56 | 231 | 4.3 | 9.6 | 0.00 | 0.00 | 0.00 | 46 | 1023.7 |
| 20260508180057 | 56 | 203 | 6.1 | 9.6 | 0.00 | 0.00 | 0.00 | 45 | 1023.6 |
| 20260508175533 | 56 | 208 | 4.3 | 10.4 | 0.00 | 0.00 | 0.00 | 45 | 1023.7 |
| 20260508175033 | 56 | 216 | 6.1 | 10.4 | 0.00 | 0.00 | 0.00 | 45 | 1023.7 |
| 20260508174559 | 56 | 226 | 7.0 | 13.0 | 0.00 | 0.00 | 0.00 | 46 | 1023.6 |
| 20260508174033 | 57 | 192 | 9.6 | 13.0 | 0.00 | 0.00 | 0.00 | 45 | 1023.6 |
| 20260508173533 | 57 | 191 | 6.1 | 11.3 | 0.00 | 0.00 | 0.00 | 45 | 1023.5 |
| 20260508173038 | 57 | 229 | 7.0 | 11.3 | 0.00 | 0.00 | 0.00 | 47 | 1023.6 |
| 20260508172534 | 57 | 207 | 6.1 | 11.3 | 0.00 | 0.00 | 0.00 | 46 | 1023.5 |
| 20260508172034 | 57 | 221 | 5.2 | 12.2 | 0.00 | 0.00 | 0.00 | 45 | 1023.4 |
| 20260508171545 | 57 | 221 | 8.7 | 12.2 | 0.00 | 0.00 | 0.00 | 45 | 1023.4 |
| 20260508171034 | 58 | 221 | 9.6 | 12.2 | 0.00 | 0.00 | 0.00 | 45 | 1023.4 |
| 20260508170534 | 58 | 223 | 7.0 | 12.2 | 0.00 | 0.00 | 0.00 | 45 | 1023.5 |
| 20260508170047 | 58 | 224 | 7.8 | 12.2 | 0.00 | 0.00 | 0.00 | 43 | 1023.3 |
| 20260508165533 | 58 | 244 | 9.6 | 13.9 | 0.00 | 0.00 | 0.00 | 44 | 1023.4 |
| 20260508165033 | 58 | 181 | 8.7 | 14.8 | 0.00 | 0.00 | 0.00 | 44 | 1023.4 |
| 20260508164550 | 58 | 212 | 8.7 | 14.8 | 0.00 | 0.00 | 0.00 | 44 | 1023.5 |
| 20260508164033 | 57 | 222 | 5.2 | 13.0 | 0.00 | 0.00 | 0.00 | 45 | 1023.4 |
| 20260508163537 | 58 | 91 | 4.3 | 9.6 | 0.00 | 0.00 | 0.00 | 45 | 1023.4 |
| 20260508163044 | 58 | 211 | 4.3 | 11.3 | 0.00 | 0.00 | 0.00 | 44 | 1023.3 |
| 20260508162533 | 59 | 241 | 8.7 | 13.9 | 0.00 | 0.00 | 0.00 | 43 | 1023.4 |
| 20260508162033 | 58 | 202 | 8.7 | 13.9 | 0.00 | 0.00 | 0.00 | 41 | 1023.2 |
| 20260508161540 | 59 | 224 | 7.0 | 14.8 | 0.00 | 0.00 | 0.00 | 43 | 1023.4 |
| 20260508161033 | 58 | 229 | 9.6 | 14.8 | 0.00 | 0.00 | 0.00 | 42 | 1023.4 |
| 20260508160533 | 58 | 214 | 6.1 | 11.3 | 0.00 | 0.00 | 0.00 | 44 | 1023.5 |
| 20260508160040 | 58 | 231 | 7.0 | 11.3 | 0.00 | 0.00 | 0.00 | 44 | 1023.5 |
| 20260508155534 | 58 | 61 | 5.2 | 11.3 | 0.00 | 0.00 | 0.00 | 43 | 1023.4 |
| 20260508155034 | 59 | 224 | 6.1 | 11.3 | 0.00 | 0.00 | 0.00 | 45 | 1023.4 |
| 20260508154538 | 58 | 215 | 7.8 | 11.3 | 0.00 | 0.00 | 0.00 | 44 | 1023.4 |
| 20260508154033 | 58 | 229 | 7.0 | 11.3 | 0.00 | 0.00 | 0.00 | 44 | 1023.5 |
| 20260508153534 | 58 | 205 | 6.1 | 10.4 | 0.00 | 0.00 | 0.00 | 45 | 1023.4 |
| 20260508153054 | 58 | 185 | 5.2 | 10.4 | 0.00 | 0.00 | 0.00 | 44 | 1023.4 |
| 20260508152534 | 58 | 207 | 6.1 | 14.8 | 0.00 | 0.00 | 0.00 | 44 | 1023.5 |
| 20260508152033 | 59 | 113 | 8.7 | 14.8 | 0.00 | 0.00 | 0.00 | 43 | 1023.5 |
| 20260508151545 | 59 | 226 | 9.6 | 13.9 | 0.00 | 0.00 | 0.00 | 43 | 1023.5 |
| 20260508151034 | 59 | 218 | 8.7 | 13.9 | 0.00 | 0.00 | 0.00 | 42 | 1023.6 |
| 20260508150533 | 59 | 244 | 9.6 | 13.0 | 0.00 | 0.00 | 0.00 | 42 | 1023.5 |
| 20260508150045 | 59 | 238 | 7.8 | 14.8 | 0.00 | 0.00 | 0.00 | 43 | 1023.5 |
| 20260508145533 | 59 | 204 | 7.0 | 16.5 | 0.00 | 0.00 | 0.00 | 43 | 1023.5 |
| 20260508145033 | 59 | 236 | 10.4 | 18.2 | 0.00 | 0.00 | 0.00 | 42 | 1023.5 |
| 20260508144550 | 59 | 227 | 12.2 | 18.2 | 0.00 | 0.00 | 0.00 | 41 | 1023.6 |
| 20260508144033 | 59 | 207 | 7.8 | 17.4 | 0.00 | 0.00 | 0.00 | 43 | 1023.6 |
| 20260508143534 | 59 | 169 | 10.4 | 17.4 | 0.00 | 0.00 | 0.00 | 41 | 1023.6 |
| 20260508143043 | 59 | 229 | 8.7 | 15.6 | 0.00 | 0.00 | 0.00 | 41 | 1023.5 |
| 20260508142534 | 60 | 211 | 9.6 | 13.9 | 0.00 | 0.00 | 0.00 | 41 | 1023.7 |
| 20260508142033 | 60 | 225 | 8.7 | 16.5 | 0.00 | 0.00 | 0.00 | 42 | 1023.6 |
| 20260508141600 | 59 | 176 | 10.4 | 17.4 | 0.00 | 0.00 | 0.00 | 39 | 1023.6 |
| 20260508141034 | 59 | 176 | 8.7 | 17.4 | 0.00 | 0.00 | 0.00 | 40 | 1023.7 |
| 20260508140533 | 60 | 225 | 13.0 | 17.4 | 0.00 | 0.00 | 0.00 | 40 | 1023.7 |
| 20260508140039 | 60 | 220 | 10.4 | 14.8 | 0.00 | 0.00 | 0.00 | 41 | 1023.6 |
| 20260508135534 | 60 | 231 | 10.4 | 15.6 | 0.00 | 0.00 | 0.00 | 41 | 1023.7 |
| 20260508135034 | 60 | 214 | 10.4 | 17.4 | 0.00 | 0.00 | 0.00 | 43 | 1023.7 |
| 20260508134545 | 60 | 219 | 10.4 | 17.4 | 0.00 | 0.00 | 0.00 | 41 | 1023.8 |
| 20260508134034 | 60 | 241 | 10.4 | 16.5 | 0.00 | 0.00 | 0.00 | 43 | 1023.8 |
| 20260508133534 | 59 | 231 | 11.3 | 16.5 | 0.00 | 0.00 | 0.00 | 40 | 1023.9 |
| 20260508133045 | 60 | 250 | 12.2 | 16.5 | 0.00 | 0.00 | 0.00 | 41 | 1023.9 |
| 20260508132535 | 60 | 166 | 8.7 | 16.5 | 0.00 | 0.00 | 0.00 | 41 | 1023.8 |
| 20260508132034 | 59 | 197 | 9.6 | 18.2 | 0.00 | 0.00 | 0.00 | 42 | 1023.8 |
| 20260508131556 | 59 | 221 | 8.7 | 18.2 | 0.00 | 0.00 | 0.00 | 41 | 1024.0 |
| 20260508131034 | 59 | 197 | 7.8 | 15.6 | 0.00 | 0.00 | 0.00 | 42 | 1024.0 |
| 20260508130535 | 59 | 212 | 7.8 | 15.6 | 0.00 | 0.00 | 0.00 | 41 | 1024.0 |
| 20260508130042 | 59 | 229 | 8.7 | 16.5 | 0.00 | 0.00 | 0.00 | 42 | 1023.9 |
| 20260508125533 | 59 | 143 | 7.8 | 16.5 | 0.00 | 0.00 | 0.00 | 42 | 1023.9 |
| 20260508125034 | 59 | 207 | 9.6 | 16.5 | 0.00 | 0.00 | 0.00 | 40 | 1024.0 |
| 20260508124539 | 59 | 229 | 11.3 | 18.2 | 0.00 | 0.00 | 0.00 | 41 | 1023.9 |
| 20260508124033 | 59 | 238 | 10.4 | 18.2 | 0.00 | 0.00 | 0.00 | 41 | 1023.9 |
| 20260508123534 | 59 | 212 | 11.3 | 18.2 | 0.00 | 0.00 | 0.00 | 42 | 1024.0 |
| 20260508123056 | 59 | 214 | 10.4 | 16.5 | 0.00 | 0.00 | 0.00 | 42 | 1023.8 |
| 20260508122534 | 60 | 220 | 8.7 | 14.8 | 0.00 | 0.00 | 0.00 | 40 | 1024.1 |
| 20260508122033 | 60 | 217 | 6.1 | 13.0 | 0.00 | 0.00 | 0.00 | 41 | 1023.8 |
| 20260508121548 | 59 | 222 | 5.2 | 14.8 | 0.00 | 0.00 | 0.00 | 42 | 1023.8 |
| 20260508121034 | 59 | 209 | 8.7 | 14.8 | 0.00 | 0.00 | 0.00 | 42 | 1023.9 |
| 20260508120533 | 59 | 226 | 7.8 | 14.8 | 0.00 | 0.00 | 0.00 | 42 | 1023.7 |
| 20260508120104 | 59 | 202 | 7.0 | 14.8 | 0.00 | 0.00 | 0.00 | 42 | 1023.7 |
| 20260508115534 | 60 | 219 | 8.7 | 14.8 | 0.00 | 0.00 | 0.00 | 43 | 1023.8 |
| 20260508115033 | 60 | 246 | 8.7 | 14.8 | 0.00 | 0.00 | 0.00 | 42 | 1023.8 |
| 20260508114555 | 59 | 224 | 7.8 | 13.9 | 0.00 | 0.00 | 0.00 | 42 | 1023.8 |
| 20260508114037 | 60 | 228 | 8.7 | 13.9 | 0.00 | 0.00 | 0.00 | 43 | 1023.7 |
| 20260508113558 | 60 | 202 | 5.2 | 13.0 | 0.00 | 0.00 | 0.00 | 45 | 1023.7 |
| 20260508113100 | 60 | 184 | 6.1 | 13.0 | 0.00 | 0.00 | 0.00 | 42 | 1023.7 |
| 20260508112534 | 60 | 193 | 7.8 | 13.0 | 0.00 | 0.00 | 0.00 | 42 | 1023.7 |
| 20260508112033 | 60 | 233 | 7.0 | 13.0 | 0.00 | 0.00 | 0.00 | 44 | 1023.8 |
| 20260508111541 | 59 | 231 | 7.0 | 13.0 | 0.00 | 0.00 | 0.00 | 44 | 1023.8 |
| 20260508111033 | 59 | 80 | 5.2 | 11.3 | 0.00 | 0.00 | 0.00 | 47 | 1023.6 |
| 20260508110534 | 58 | 115 | 5.2 | 15.6 | 0.00 | 0.00 | 0.00 | 44 | 1023.4 |
| 20260508110038 | 58 | 220 | 7.0 | 15.6 | 0.00 | 0.00 | 0.00 | 47 | 1023.7 |
| 20260508105534 | 58 | 240 | 7.8 | 14.8 | 0.00 | 0.00 | 0.00 | 48 | 1023.7 |
| 20260508105034 | 58 | 207 | 7.8 | 12.2 | 0.00 | 0.00 | 0.00 | 46 | 1023.7 |
| 20260508104547 | 58 | 219 | 7.8 | 12.2 | 0.00 | 0.00 | 0.00 | 48 | 1023.5 |
| 20260508104033 | 57 | 248 | 7.8 | 12.2 | 0.00 | 0.00 | 0.00 | 48 | 1023.6 |
| 20260508103533 | 58 | 221 | 7.8 | 11.3 | 0.00 | 0.00 | 0.00 | 49 | 1023.4 |
| 20260508103053 | 57 | 223 | 7.0 | 11.3 | 0.00 | 0.00 | 0.00 | 49 | 1023.6 |
| 20260508102533 | 56 | 210 | 7.0 | 12.2 | 0.00 | 0.00 | 0.00 | 51 | 1023.7 |
| 20260508102033 | 56 | 188 | 5.2 | 12.2 | 0.00 | 0.00 | 0.00 | 51 | 1023.5 |
| 20260508101551 | 57 | 100 | 6.1 | 10.4 | 0.00 | 0.00 | 0.00 | 52 | 1023.5 |
| 20260508101034 | 56 | 186 | 6.1 | 10.4 | 0.00 | 0.00 | 0.00 | 50 | 1023.6 |
| 20260508100533 | 58 | 214 | 6.1 | 9.6 | 0.00 | 0.00 | 0.00 | 50 | 1023.5 |
| 20260508100040 | 58 | 103 | 6.1 | 13.9 | 0.00 | 0.00 | 0.00 | 52 | 1023.5 |
| 20260508095533 | 58 | 181 | 5.2 | 13.9 | 0.00 | 0.00 | 0.00 | 50 | 1023.5 |
| 20260508095033 | 57 | 214 | 9.6 | 13.0 | 0.00 | 0.00 | 0.00 | 49 | 1023.6 |
| 20260508094540 | 57 | 224 | 5.2 | 11.3 | 0.00 | 0.00 | 0.00 | 52 | 1023.6 |
| 20260508094033 | 56 | 113 | 4.3 | 9.6 | 0.00 | 0.00 | 0.00 | 53 | 1023.6 |
| 20260508093536 | 57 | 126 | 6.1 | 12.2 | 0.00 | 0.00 | 0.00 | 53 | 1023.7 |
| 20260508093046 | 56 | 179 | 5.2 | 12.2 | 0.00 | 0.00 | 0.00 | 51 | 1023.7 |
| 20260508092535 | 56 | 124 | 5.2 | 11.3 | 0.00 | 0.00 | 0.00 | 53 | 1023.5 |
| 20260508092033 | 56 | 160 | 4.3 | 11.3 | 0.00 | 0.00 | 0.00 | 54 | 1023.7 |
| 20260508091545 | 55 | 226 | 5.2 | 11.3 | 0.00 | 0.00 | 0.00 | 52 | 1023.7 |
| 20260508091033 | 55 | 221 | 5.2 | 10.4 | 0.00 | 0.00 | 0.00 | 51 | 1023.7 |
| 20260508090533 | 55 | 134 | 4.3 | 10.4 | 0.00 | 0.00 | 0.00 | 51 | 1023.7 |
| 20260508090050 | 55 | 181 | 4.3 | 10.4 | 0.00 | 0.00 | 0.00 | 50 | 1023.8 |
| 20260508085534 | 55 | 115 | 3.5 | 11.3 | 0.00 | 0.00 | 0.00 | 52 | 1023.7 |
| 20260508085033 | 54 | 162 | 4.3 | 11.3 | 0.00 | 0.00 | 0.00 | 51 | 1023.8 |
| 20260508084539 | 55 | 147 | 6.1 | 11.3 | 0.00 | 0.00 | 0.00 | 52 | 1023.7 |
| 20260508084034 | 54 | 95 | 2.6 | 10.4 | 0.00 | 0.00 | 0.00 | 55 | 1023.6 |
| 20260508083532 | 53 | 173 | 3.5 | 10.4 | 0.00 | 0.00 | 0.00 | 57 | 1023.8 |
| 20260508083149 | 53 | 107 | 2.6 | 7.8 | 0.00 | 0.00 | 0.00 | 56 | 1023.7 |
| 20260508082536 | 52 | 173 | 2.6 | 8.7 | 0.00 | 0.00 | 0.00 | 58 | 1023.9 |
| 20260508082034 | 52 | 90 | 3.5 | 8.7 | 0.00 | 0.00 | 0.00 | 59 | 1023.8 |
| 20260508081548 | 52 | 109 | 2.6 | 8.7 | 0.00 | 0.00 | 0.00 | 58 | 1023.7 |
| 20260508081033 | 52 | 169 | 2.6 | 7.8 | 0.00 | 0.00 | 0.00 | 59 | 1023.8 |
| 20260508080535 | 52 | 222 | 3.5 | 7.8 | 0.00 | 0.00 | 0.00 | 59 | 1023.7 |
| 20260508080048 | 51 | 225 | 2.6 | 7.8 | 0.00 | 0.00 | 0.00 | 57 | 1023.7 |
| 20260508075534 | 51 | 202 | 2.6 | 7.8 | 0.00 | 0.00 | 0.00 | 57 | 1023.7 |
| 20260508075033 | 51 | 122 | 3.5 | 7.8 | 0.00 | 0.00 | 0.00 | 58 | 1023.7 |
| 20260508074547 | 50 | 154 | 2.6 | 6.1 | 0.00 | 0.00 | 0.00 | 60 | 1023.7 |
| 20260508074035 | 50 | 124 | 2.6 | 6.1 | 0.00 | 0.00 | 0.00 | 60 | 1023.6 |
| 20260508073534 | 50 | 104 | 1.7 | 5.2 | 0.00 | 0.00 | 0.00 | 64 | 1023.6 |
| 20260508073045 | 49 | 89 | 1.7 | 6.1 | 0.00 | 0.00 | 0.00 | 65 | 1023.6 |
| 20260508072534 | 48 | 89 | 2.6 | 6.1 | 0.00 | 0.00 | 0.00 | 67 | 1023.7 |
| 20260508072034 | 47 | 174 | 1.7 | 5.2 | 0.00 | 0.00 | 0.00 | 68 | 1023.7 |
| 20260508071541 | 47 | 90 | 0.9 | 3.5 | 0.00 | 0.00 | 0.00 | 68 | 1023.6 |
| 20260508071033 | 46 | 148 | 0.0 | 2.6 | 0.00 | 0.00 | 0.00 | 68 | 1023.6 |
| 20260508070534 | 46 | 0 | 1.7 | 2.6 | 0.00 | 0.00 | 0.00 | 67 | 1023.6 |
| 20260508070040 | 45 | 222 | 1.7 | 2.6 | 0.00 | 0.00 | 0.00 | 68 | 1023.5 |
| 20260508065533 | 45 | 0 | 0.9 | 2.6 | 0.00 | 0.00 | 0.00 | 68 | 1023.5 |
| 20260508065035 | 44 | 0 | 0.0 | 0.9 | 0.00 | 0.00 | 0.00 | 65 | 1023.6 |
| 20260508064542 | 43 | 0 | 0.0 | 0.9 | 0.00 | 0.00 | 0.00 | 62 | 1023.6 |
| 20260508064033 | 42 | 0 | 0.0 | 0.9 | 0.00 | 0.00 | 0.00 | 60 | 1023.4 |
| 20260508063533 | 42 | 219 | 0.9 | 0.9 | 0.00 | 0.00 | 0.00 | 58 | 1023.4 |
| 20260508063056 | 42 | 209 | 0.0 | 0.9 | 0.00 | 0.00 | 0.00 | 60 | 1023.5 |
| 20260508062533 | 41 | 0 | 0.0 | 1.7 | 0.00 | 0.00 | 0.00 | 63 | 1023.5 |
| 20260508062033 | 41 | 280 | 0.0 | 1.7 | 0.00 | 0.00 | 0.00 | 63 | 1023.3 |
| 20260508061548 | 40 | 294 | 0.9 | 1.7 | 0.00 | 0.00 | 0.00 | 63 | 1023.3 |
| 20260508061034 | 39 | 287 | 0.0 | 0.9 | 0.00 | 0.00 | 0.00 | 68 | 1023.1 |
| 20260508060533 | 39 | 0 | 0.0 | 0.0 | 0.00 | 0.00 | 0.00 | 72 | 1023.3 |
| 20260508060046 | 38 | 0 | 0.0 | 0.0 | 0.00 | 0.00 | 0.00 | 76 | 1023.1 |
| 20260508055533 | 37 | 0 | 0.0 | 0.0 | 0.00 | 0.00 | 0.00 | 77 | 1023.1 |
| 20260508055033 | 37 | 0 | 0.0 | 0.0 | 0.00 | 0.00 | 0.00 | 78 | 1023.1 |
| 20260508054544 | 35 | 0 | 0.0 | 0.0 | 0.00 | 0.00 | 0.00 | 79 | 1023.0 |
| 20260508054033 | 35 | 0 | 0.0 | 0.0 | 0.00 | 0.00 | 0.00 | 79 | 1023.0 |
| 20260508053533 | 34 | 0 | 0.0 | 0.0 | 0.00 | 0.00 | 0.00 | 80 | 1022.9 |
| 20260508053042 | 34 | 0 | 0.0 | 0.0 | 0.00 | 0.00 | 0.00 | 80 | 1022.9 |
| 20260508052533 | 33 | 0 | 0.0 | 0.0 | 0.00 | 0.00 | 0.00 | 83 | 1023.0 |
| 20260508052032 | 33 | 0 | 0.0 | 0.0 | 0.00 | 0.00 | 0.00 | 85 | 1023.0 |
| 20260508051543 | 32 | 0 | 0.0 | 0.0 | 0.00 | 0.00 | 0.00 | 85 | 1023.0 |
| 20260508051033 | 32 | 0 | 0.0 | 0.0 | 0.00 | 0.00 | 0.00 | 86 | 1022.9 |
| 20260508050533 | 32 | 0 | 0.0 | 0.9 | 0.00 | 0.00 | 0.00 | 86 | 1022.9 |
| 20260508050048 | 31 | 0 | 0.0 | 0.9 | 0.00 | 0.00 | 0.00 | 87 | 1022.8 |
| 20260508045532 | 30 | 0 | 0.0 | 0.0 | 0.00 | 0.00 | 0.00 | 86 | 1022.8 |
| 20260508045032 | 30 | 0 | 0.0 | 0.0 | 0.00 | 0.00 | 0.00 | 86 | 1022.7 |
| 20260508044545 | 30 | 0 | 0.0 | 0.0 | 0.00 | 0.00 | 0.00 | 86 | 1022.7 |
| 20260508044032 | 30 | 0 | 0.0 | 0.0 | 0.00 | 0.00 | 0.00 | 86 | 1022.6 |
| 20260508043533 | 30 | 0 | 0.0 | 0.0 | 0.00 | 0.00 | 0.00 | 86 | 1022.4 |
| 20260508043056 | 30 | 0 | 0.0 | 0.0 | 0.00 | 0.00 | 0.00 | 85 | 1022.5 |
| 20260508042533 | 29 | 0 | 0.0 | 0.0 | 0.00 | 0.00 | 0.00 | 85 | 1022.4 |
| 20260508042035 | 29 | 0 | 0.0 | 0.0 | 0.00 | 0.00 | 0.00 | 85 | 1022.4 |
| 20260508041550 | 29 | 0 | 0.0 | 0.0 | 0.00 | 0.00 | 0.00 | 85 | 1022.4 |
| 20260508041035 | 29 | 0 | 0.0 | 0.0 | 0.00 | 0.00 | 0.00 | 84 | 1022.3 |
| 20260508040533 | 29 | 0 | 0.0 | 0.0 | 0.00 | 0.00 | 0.00 | 84 | 1022.3 |
| 20260508040042 | 29 | 0 | 0.0 | 0.0 | 0.00 | 0.00 | 0.00 | 84 | 1022.3 |
| 20260508035533 | 29 | 0 | 0.0 | 0.0 | 0.00 | 0.00 | 0.00 | 84 | 1022.2 |
| 20260508035033 | 29 | 0 | 0.0 | 0.0 | 0.00 | 0.00 | 0.00 | 85 | 1022.2 |
| 20260508034548 | 29 | 0 | 0.0 | 0.0 | 0.00 | 0.00 | 0.00 | 86 | 1022.2 |
| 20260508034032 | 29 | 0 | 0.0 | 0.0 | 0.00 | 0.00 | 0.00 | 87 | 1022.2 |
| 20260508033532 | 29 | 0 | 0.0 | 0.0 | 0.00 | 0.00 | 0.00 | 87 | 1022.1 |
| 20260508033039 | 29 | 0 | 0.0 | 0.0 | 0.00 | 0.00 | 0.00 | 87 | 1022.1 |
| 20260508032533 | 29 | 0 | 0.0 | 0.0 | 0.00 | 0.00 | 0.00 | 87 | 1022.0 |
| 20260508032035 | 29 | 0 | 0.0 | 0.0 | 0.00 | 0.00 | 0.00 | 87 | 1022.1 |
| 20260508031544 | 29 | 0 | 0.0 | 0.0 | 0.00 | 0.00 | 0.00 | 87 | 1022.1 |
| 20260508031033 | 29 | 0 | 0.0 | 0.0 | 0.00 | 0.00 | 0.00 | 87 | 1022.1 |
| 20260508030534 | 29 | 0 | 0.0 | 0.0 | 0.00 | 0.00 | 0.00 | 86 | 1022.2 |
| 20260508030045 | 29 | 0 | 0.0 | 0.0 | 0.00 | 0.00 | 0.00 | 86 | 1022.1 |
| 20260508025533 | 28 | 0 | 0.0 | 0.0 | 0.00 | 0.00 | 0.00 | 85 | 1022.0 |
| 20260508025034 | 29 | 0 | 0.0 | 0.0 | 0.00 | 0.00 | 0.00 | 85 | 1022.1 |
| 20260508024541 | 29 | 0 | 0.0 | 0.0 | 0.00 | 0.00 | 0.00 | 86 | 1022.0 |
| 20260508024033 | 28 | 0 | 0.0 | 0.0 | 0.00 | 0.00 | 0.00 | 85 | 1021.9 |
| 20260508023533 | 28 | 0 | 0.0 | 0.0 | 0.00 | 0.00 | 0.00 | 85 | 1021.9 |
| 20260508023038 | 28 | 0 | 0.0 | 0.0 | 0.00 | 0.00 | 0.00 | 84 | 1021.9 |
| 20260508022533 | 28 | 0 | 0.0 | 0.0 | 0.00 | 0.00 | 0.00 | 85 | 1021.8 |
| 20260508022033 | 29 | 0 | 0.0 | 0.0 | 0.00 | 0.00 | 0.00 | 86 | 1021.8 |
| 20260508021551 | 29 | 0 | 0.0 | 0.0 | 0.00 | 0.00 | 0.00 | 86 | 1021.9 |
| 20260508021032 | 29 | 0 | 0.0 | 0.0 | 0.00 | 0.00 | 0.00 | 86 | 1021.8 |
| 20260508020532 | 28 | 0 | 0.0 | 0.0 | 0.00 | 0.00 | 0.00 | 86 | 1021.8 |
| 20260508020049 | 28 | 0 | 0.0 | 0.0 | 0.00 | 0.00 | 0.00 | 85 | 1021.8 |
| 20260508015532 | 29 | 0 | 0.0 | 0.0 | 0.00 | 0.00 | 0.00 | 85 | 1021.8 |
| 20260508015032 | 29 | 0 | 0.0 | 0.0 | 0.00 | 0.00 | 0.00 | 85 | 1021.8 |
| 20260508014544 | 29 | 0 | 0.0 | 0.0 | 0.00 | 0.00 | 0.00 | 84 | 1021.8 |
| 20260508014033 | 29 | 0 | 0.0 | 0.0 | 0.00 | 0.00 | 0.00 | 84 | 1021.9 |
| 20260508013533 | 29 | 0 | 0.0 | 0.0 | 0.00 | 0.00 | 0.00 | 83 | 1021.7 |
| 20260508013053 | 29 | 0 | 0.0 | 0.0 | 0.00 | 0.00 | 0.00 | 83 | 1021.7 |
| 20260508012533 | 29 | 0 | 0.0 | 0.0 | 0.00 | 0.00 | 0.00 | 83 | 1021.6 |
| 20260508012033 | 29 | 0 | 0.0 | 0.0 | 0.00 | 0.00 | 0.00 | 83 | 1021.6 |
| 20260508011543 | 29 | 0 | 0.0 | 0.0 | 0.00 | 0.00 | 0.00 | 80 | 1021.7 |
| 20260508011033 | 29 | 0 | 0.0 | 0.0 | 0.00 | 0.00 | 0.00 | 78 | 1021.6 |
| 20260508010534 | 30 | 0 | 0.0 | 0.0 | 0.00 | 0.00 | 0.00 | 79 | 1021.3 |
| 20260508010050 | 30 | 0 | 0.0 | 0.0 | 0.00 | 0.00 | 0.00 | 80 | 1021.1 |
| 20260508005533 | 30 | 0 | 0.0 | 0.0 | 0.00 | 0.00 | 0.00 | 79 | 1021.2 |
| 20260508005036 | 30 | 0 | 0.0 | 0.0 | 0.00 | 0.00 | 0.00 | 79 | 1021.2 |